Regional Weather Roundup
Issued by NWS Kansas City/Pleasant Hill, MO

Home | Current Version | Previous Version | Graphics & Text | Print | Product List | Glossary Off
Versions: 1 2 3 4 5 6 7 8 9 10 11 12 13 14 15 16 17 18 19 20 21 22 23 24 25 26 27 28 29 30 31 32 33 34 35 36 37 38 39 40 41 42 43 44 45 46 47 48 49 50

000
ASUS43 KEAX 021710
RWREAX

WEATHER ROUNDUP FOR EASTERN KANSAS AND NORTHWEST MISSOURI
NATIONAL WEATHER SERVICE KANSAS CITY/PLEASANT HILL MO
1200 PM CDT THU JUL 02 2015

KSZ040-057-103>105-MOZ028-029-037-043-021800-
...KANSAS CITY METROPOLITAN AREA...

CITY           SKY/WX    TMP DP  RH WIND       PRES   REMARKS
K.C. INTL      CLOUDY    71  67  87 E8        29.94R
K.C. DOWNTOWN  CLOUDY    73  68  84 NE8       29.93R
LEES SUMMIT    CLOUDY    72  68  87 NE8       29.94R
OLATHE - IXD   CLOUDY    73  69  87 E7        29.94R FOG
OLATHE - OJC   CLOUDY    71  68  90 E8        29.93R
LAWRENCE       CLOUDY    73  68  84 E7        29.93S

$$

MOZ001>008-011>017-020>025-030>033-038>040-044>046-053-054-021800-
...NORTHERN AND CENTRAL MISSOURI...

CITY           SKY/WX    TMP DP  RH WIND       PRES   REMARKS
ST. JOSEPH     CLOUDY    70  66  87 NE7       29.95R
MOSBY            N/A     70  66  88 NE7       29.93R
WARRENSBURG    CLOUDY    70  68  94 NE10      29.92R
WHITEMAN AFB   PTSUNNY   71  69  93 NE12      29.92R
CLINTON        CLOUDY    75  72  88 NE9       29.91R FOG
SEDALIA        CLOUDY    74  69  85 NE9       29.93R
WARSAW         PTSUNNY   73  70  88 NE3       29.91R
CHILLICOTHE      N/A     70  64  81 NE6       29.97R
KIRKSVILLE     MOSUNNY   72  60  66 E10       29.98R

$$

MOZ041-047>049-056>058-063>065-088>090-097-021800-
...EASTERN AND SOUTHERN MISSOURI...

CITY           SKY/WX    TMP DP  RH WIND       PRES   REMARKS
ST. LOUIS INTL CLOUDY    69  60  73 NE9       29.93R
SPIRIT OF STL  CLOUDY    67  63  87 NE8       29.91S
COLUMBIA       CLOUDY    70  66  87 NE8       29.93S
JEFFERSON CITY CLOUDY    72  67  84 NE7       29.91R
ROLLA          CLOUDY    76  69  79 CALM      29.89S
LEBANON        CLOUDY    73  70  88 MISG      29.91R
OSAGE BEACH    CLOUDY    73  68  83 NE7       29.89S
SPRINGFIELD    CLOUDY    77  71  82 S5        29.88R
BRANSON        CLOUDY    77  73  88 CALM      29.90S
JOPLIN         MOSUNNY   83  74  74 N6        29.87R
WEST PLAINS    CLOUDY    78  70  76 SW12G17   29.90S

$$

IAZ060-094-KSZ022-034>040-054-083-096-NEZ052-066-093-021800-
...KANSAS...SOUTHEAST NEBRASKA AND IOWA...

CITY           SKY/WX    TMP DP  RH WIND       PRES   REMARKS
TOPEKA         CLOUDY    75  69  81 E6        29.95R
MANHATTAN      LGT RAIN  75  70  84 E10       29.87F
EMPORIA        CLOUDY    76  69  79 NE6       29.95R
CHANUTE        CLOUDY    79  70  74 N8        29.91R
WICHITA        CLOUDY    79  71  76 NE10      29.95R
OMAHA          RAIN      65  63  93 E3        29.98R FOG
LINCOLN        LGT RAIN  67  65  93 E10       29.95F FOG
FALLS CITY     LGT RAIN  69  65  86 SE3       29.96R
LAMONI         CLOUDY    69  62  78 E6        29.97S
DES MOINES     CLOUDY    68  56  65 E9        29.98F

$$



USA.gov is the U.S. government's official web portal to all federal, state and local government web resources and services.